Tracking 18823 objects as of 23-October-2017
HD Live streaming from Space Station
objects crossing your sky now

TITAN 3C TRANSTAGE R/B

Track TITAN 3C TRANSTAGE R/B now!


NORAD ID: 10942
Int'l Code: 1978-058B
Perigee: 29,636.4 km
Apogee: 42,314.1 km
Inclination: 7.5 °
Period: 1,445.4 minutes
Semi major axis: 42346 km
RCS: Unknown
Launch date: June 10, 1978
Source: United States (US)
Launch site: AIR FORCE EASTERN TEST RANGE (AFETR)

Note: This is a ROCKET BODY
aabbcc
Your satellite tracking list
Your tracking list is empty





NASA's NSSDC Master Catalog

Two Line Element Set (TLE):
1 10942U 78058B   17238.76183282 0.00000000  00000-0  00000-0 0    05
2 10942   7.5132  27.9552 1496903  62.4943 311.9390  0.99627765    03
Source of the keplerian elements: McCants